Location: Unspecified
(0.0000°N, 0.0000°E)
Time: 00:03:21
(UTC+00:00)

Envisat - Pass Details

Date: 15 January 2022
Orbit: 764 x 766 km, 98.2° (Epoch: 27 January)

Event Time Altitude Azimuth Distance (km) Brightness Sun altitude
Rises 04:40:30 0° 6° (N) 3,212 6.1 -20.6°
Reaches altitude 10° 04:42:48 10° 3° (N) 2,289 5.3 -20.1°
Maximum altitude 04:47:48 64° 282° (WNW) 841 2.9 -19.0°
Drops below altitude 10° 04:52:49 10° 201° (SSW) 2,300 5.5 -17.8°
Sets 04:55:09 0° 198° (SSW) 3,228 6.3 -17.3°
